CZ-6A DEB

Satellite information

Favourite Embed

Satellite Type and Status

DEBRISIN ORBIT

Key statistics

Satellite CZ-6A DEB at a glance.

Uptime

1129

Days in orbit

Revolutions

≈ 14.1

Per day

Orbit

SSO

Sun Synchronous Orbit

Inclination

98.8

Latest

Satellite identification and parameters

Extended collection of information and parameters for CZ-6A DEB.

Object identification

Identified? True

Debris? True

Object name: CZ-6A DEB

International designator: 2022-151ZU

Object number (NORAD): 55872

Object ID (CCSDS): 55872

Country: PEOPLES REPUBLIC OF CHINA (PRC)

Current information (Y/N): Y

RCS size: SMALL

Orbital parameters

Period: 102.038 minutes

Inclination: 98.8302 deg

SMA: 7233.293 km

Apoapsis: 884.816 km

Periapsis: 825.5 km

RAAN: 345.8724 deg

Eccentricy: 0.0041002

Argument of periapsis: 121.5386 deg

Mean anomaly: 238.9799 deg

Mean motion: 14.11232779 rev/day

Mean motion (dot): 0.00000405 rev/day2

B* drag term: 0.00024657 1/REarth

Two-line elements (TLE)

Creation date: Dec. 12, 2025, 7:26 a.m.

Reference frame: TEME

Reference center: EARTH

Epoch: Dec. 11, 2025, 11:14 p.m. UTC

TLE line 0: 0 CZ-6A DEB

TLE line 1: 1 55872U 22151ZU 25345.96868472 .00000405 00000-0 24657-3 0 9993

TLE line 2: 2 55872 98.8302 345.8724 0041002 121.5386 238.9799 14.11232779146639

Live tracking on map

Real-time ground track for satellite CZ-6A DEB.

In-orbit conjunctions

A list of the most updated potential collisions computed for object CZ-6A DEB.

Target Orbit TCA Probability of collision Miss distance Type
NOAA 14 SSO 2025-03-03 09:31:15 0.000377659 504.0 (m) PAYLOAD
COSMOS 1275 DEB LEO 2024-11-10 14:59:44 0.0005457136 322.0 (m) DEBRIS

Associated space launch

Chinese satellite reported for atmospheric/ocean/environmental/spatial parameter research purposes, details TBD.

CZ-6A DEB was lifted into orbit during the mission ‘Long March 6A | Yunhai 3’, on board a Long March 6A space rocket.

The launch took place on Nov. 11, 2022, 10:52 p.m. from Launch Complex 9A.

For more information about the launch, click the button.

Launch to space Long March 6A | Yunhai 3
Long March 6A | Yunhai 3

Agency: N/A

Status: Launch Successful

Launch date: Nov. 11, 2022, 10:52 p.m. UTC

Rocket: Long March 6A

Launch pad: Launch Complex 9A

Location: Taiyuan Satellite Launch Center, People's Republic of China

...

Latest news about this satellite

There are no fresh news available about this satellite. Check back as we update our databases every day.


Newsletter sign-up

Weekly statistics, charts and insights to help you stay on top of the space industry.